| time (UTC) | temp F | wind direction | speed knots | gust knots | rain 1hr in | rain 24hr in | rain mn in | humidity % | barometer mb |
| 20260504214557 | 71 | 270 | 11.3 | 34.8 | 0.00 | 0.00 | 0.00 | 36 | 1010.9 |
| 20260504214053 | 72 | 214 | 17.4 | 20.0 | 0.00 | 0.00 | 0.00 | 38 | 1011.0 |
| 20260504213549 | 72 | 261 | 10.4 | 43.4 | 0.00 | 0.00 | 0.00 | 35 | 1011.0 |
| 20260504213047 | 72 | 223 | 19.1 | 32.2 | 0.00 | 0.00 | 0.00 | 36 | 1011.0 |
| 20260504212542 | 72 | 215 | 21.7 | 40.8 | 0.00 | 0.00 | 0.00 | 37 | 1010.9 |
| 20260504212040 | 72 | 213 | 26.9 | 48.7 | 0.00 | 0.00 | 0.00 | 37 | 1011.0 |
| 20260504211537 | 72 | 256 | 11.3 | 14.8 | 0.00 | 0.00 | 0.00 | 37 | 1010.9 |
| 20260504211034 | 72 | 211 | 26.1 | 44.3 | 0.00 | 0.00 | 0.00 | 36 | 1010.9 |
| 20260504210531 | 72 | 227 | 25.2 | 38.2 | 0.00 | 0.00 | 0.00 | 37 | 1011.0 |
| 20260504210027 | 72 | 255 | 22.6 | 35.6 | 0.00 | 0.00 | 0.00 | 35 | 1011.0 |
| 20260504205526 | 72 | 254 | 7.8 | 26.1 | 0.00 | 0.00 | 0.00 | 36 | 1011.0 |
| 20260504205023 | 72 | 226 | 18.2 | 31.3 | 0.00 | 0.00 | 0.00 | 35 | 1011.0 |
| 20260504204521 | 72 | 255 | 13.9 | 19.1 | 0.00 | 0.00 | 0.00 | 36 | 1011.1 |
| 20260504204020 | 72 | 193 | 0.0 | 21.7 | 0.00 | 0.00 | 0.00 | 35 | 1011.0 |
| 20260504203518 | 72 | 212 | 32.2 | 39.1 | 0.00 | 0.00 | 0.00 | 35 | 1011.3 |
| 20260504203015 | 72 | 206 | 9.6 | 25.2 | 0.00 | 0.00 | 0.00 | 41 | 1011.3 |
| 20260504202510 | 72 | 235 | 9.6 | 20.0 | 0.00 | 0.00 | 0.00 | 37 | 1011.2 |
| 20260504202007 | 72 | 215 | 13.0 | 22.6 | 0.00 | 0.00 | 0.00 | 39 | 1011.4 |
| 20260504201504 | 72 | 235 | 19.1 | 24.3 | 0.00 | 0.00 | 0.00 | 37 | 1011.3 |
| 20260504201002 | 72 | 290 | 0.0 | 11.3 | 0.00 | 0.00 | 0.00 | 40 | 1011.6 |
| 20260504200458 | 71 | 205 | 19.1 | 39.1 | 0.00 | 0.00 | 0.00 | 40 | 1011.4 |
| 20260504195954 | 71 | 225 | 16.5 | 32.2 | 0.00 | 0.00 | 0.00 | 38 | 1011.5 |
| 20260504195451 | 71 | 266 | 7.0 | 40.8 | 0.00 | 0.00 | 0.00 | 36 | 1011.7 |
| 20260504194947 | 71 | 220 | 25.2 | 31.3 | 0.00 | 0.00 | 0.00 | 37 | 1011.7 |
| 20260504194443 | 71 | 226 | 21.7 | 32.2 | 0.00 | 0.00 | 0.00 | 41 | 1011.8 |
| 20260504193939 | 71 | 201 | 9.6 | 22.6 | 0.00 | 0.00 | 0.00 | 36 | 1011.9 |
| 20260504193437 | 72 | 245 | 24.3 | 41.7 | 0.00 | 0.00 | 0.00 | 35 | 1012.1 |
| 20260504192935 | 71 | 227 | 14.8 | 26.9 | 0.00 | 0.00 | 0.00 | 40 | 1012.2 |
| 20260504192432 | 71 | 248 | 11.3 | 17.4 | 0.00 | 0.00 | 0.00 | 36 | 1012.3 |
| 20260504191931 | 71 | 235 | 13.9 | 33.9 | 0.00 | 0.00 | 0.00 | 37 | 1012.4 |
| 20260504191429 | 71 | 197 | 26.1 | 40.0 | 0.00 | 0.00 | 0.00 | 36 | 1012.3 |
| 20260504190924 | 71 | 226 | 23.5 | 39.1 | 0.00 | 0.00 | 0.00 | 39 | 1012.4 |
| 20260504190420 | 71 | 47 | 8.7 | 24.3 | 0.00 | 0.00 | 0.00 | 37 | 1012.4 |
| 20260504185917 | 71 | 250 | 11.3 | 16.5 | 0.00 | 0.00 | 0.00 | 37 | 1012.3 |
| 20260504185414 | 71 | 189 | 17.4 | 38.2 | 0.00 | 0.00 | 0.00 | 37 | 1012.4 |
| 20260504184910 | 71 | 236 | 26.1 | 30.4 | 0.00 | 0.00 | 0.00 | 38 | 1012.5 |
| 20260504184406 | 71 | 206 | 35.6 | 41.7 | 0.00 | 0.00 | 0.00 | 37 | 1012.6 |
| 20260504183902 | 71 | 218 | 29.5 | 33.9 | 0.00 | 0.00 | 0.00 | 36 | 1012.8 |
| 20260504183359 | 71 | 200 | 13.0 | 39.1 | 0.00 | 0.00 | 0.00 | 37 | 1012.7 |
| 20260504182857 | 72 | 209 | 33.0 | 39.1 | 0.00 | 0.00 | 0.00 | 37 | 1012.8 |
| 20260504182354 | 73 | 270 | 13.9 | 21.7 | 0.00 | 0.00 | 0.00 | 34 | 1012.9 |
| 20260504181850 | 73 | 258 | 8.7 | 13.9 | 0.00 | 0.00 | 0.00 | 33 | 1013.0 |
| 20260504181348 | 72 | 277 | 6.1 | 19.1 | 0.00 | 0.00 | 0.00 | 37 | 1012.9 |
| 20260504180847 | 72 | 210 | 15.6 | 27.8 | 0.00 | 0.00 | 0.00 | 38 | 1013.1 |
| 20260504180345 | 72 | 218 | 13.0 | 27.8 | 0.00 | 0.00 | 0.00 | 34 | 1013.2 |
| 20260504175843 | 72 | 176 | 22.6 | 26.1 | 0.00 | 0.00 | 0.00 | 35 | 1013.1 |
| 20260504175339 | 71 | 223 | 23.5 | 35.6 | 0.00 | 0.00 | 0.00 | 39 | 1013.3 |
| 20260504174838 | 72 | 250 | 5.2 | 38.2 | 0.00 | 0.00 | 0.00 | 36 | 1013.0 |
| 20260504174335 | 71 | 206 | 30.4 | 32.2 | 0.00 | 0.00 | 0.00 | 38 | 1013.2 |
| 20260504173832 | 73 | 221 | 31.3 | 51.3 | 0.00 | 0.00 | 0.00 | 35 | 1013.3 |
| 20260504173328 | 71 | 247 | 6.1 | 20.0 | 0.00 | 0.00 | 0.00 | 40 | 1013.2 |
| 20260504172825 | 72 | 182 | 33.0 | 40.8 | 0.00 | 0.00 | 0.00 | 34 | 1013.5 |
| 20260504172322 | 72 | 255 | 5.2 | 14.8 | 0.00 | 0.00 | 0.00 | 37 | 1013.7 |
| 20260504171818 | 71 | 245 | 14.8 | 26.9 | 0.00 | 0.00 | 0.00 | 41 | 1013.9 |
| 20260504171315 | 71 | 259 | 13.0 | 20.0 | 0.00 | 0.00 | 0.00 | 36 | 1013.7 |
| 20260504170812 | 72 | 204 | 26.1 | 30.4 | 0.00 | 0.00 | 0.00 | 34 | 1014.0 |
| 20260504170309 | 72 | 207 | 11.3 | 14.8 | 0.00 | 0.00 | 0.00 | 36 | 1013.9 |
| 20260504160227 | 68 | 202 | 13.0 | 25.2 | 0.00 | 0.00 | 0.00 | 41 | 1014.6 |
| 20260504150652 | 64 | 200 | 11.3 | 22.6 | 0.00 | 0.00 | 0.00 | 40 | 1015.6 |
| 20260504150149 | 64 | 215 | 13.9 | 32.2 | 0.00 | 0.00 | 0.00 | 40 | 1015.5 |
| 20260504141118 | 59 | 214 | 13.0 | 15.6 | 0.00 | 0.00 | 0.00 | 49 | 1015.7 |
| 20260504140615 | 58 | 227 | 15.6 | 18.2 | 0.00 | 0.00 | 0.00 | 50 | 1015.6 |
| 20260504140110 | 58 | 245 | 8.7 | 15.6 | 0.00 | 0.00 | 0.00 | 54 | 1015.7 |
| 20260504130539 | 53 | 240 | 13.9 | 20.0 | 0.00 | 0.00 | 0.00 | 56 | 1016.2 |
| 20260504110426 | 42 | 320 | 0.0 | 0.0 | 0.00 | 0.00 | 0.00 | 81 | 1016.1 |
| 20260504100343 | 39 | 193 | 5.2 | 6.1 | 0.00 | 0.00 | 0.00 | 81 | 1016.3 |
| 20260504081737 | 40 | 205 | 0.0 | 0.0 | 0.00 | 0.00 | 0.00 | 77 | 1016.5 |
| 20260504081233 | 40 | 218 | 7.8 | 7.8 | 0.00 | 0.00 | 0.00 | 75 | 1016.4 |
| 20260504080730 | 41 | 49 | 7.8 | 7.8 | 0.00 | 0.00 | 0.00 | 76 | 1016.5 |
| 20260504080226 | 41 | 261 | 5.2 | 5.2 | 0.00 | 0.00 | 0.00 | 77 | 1016.6 |
| 20260504070154 | 41 | 171 | 0.0 | 0.0 | 0.00 | 0.00 | 0.00 | 79 | 1016.5 |
| 20260504060119 | 42 | 267 | 0.0 | 0.0 | 0.00 | 0.00 | 0.00 | 70 | 1016.7 |
| 20260504050548 | 44 | 220 | 0.0 | 0.0 | 0.00 | 0.00 | 0.00 | 71 | 1016.6 |
| 20260504045541 | 44 | 265 | 0.0 | 5.2 | 0.00 | 0.00 | 0.00 | 64 | 1016.7 |
| 20260504045037 | 44 | 240 | 0.0 | 0.0 | 0.00 | 0.00 | 0.00 | 68 | 1016.8 |
| 20260504044535 | 43 | 245 | 0.0 | 0.0 | 0.00 | 0.00 | 0.00 | 68 | 1016.7 |
| 20260504044031 | 43 | 230 | 0.0 | 0.0 | 0.00 | 0.00 | 0.00 | 70 | 1016.5 |
| 20260504043528 | 45 | 211 | 6.1 | 9.6 | 0.00 | 0.00 | 0.00 | 71 | 1016.6 |
| 20260504043026 | 45 | 277 | 7.0 | 9.6 | 0.00 | 0.00 | 0.00 | 62 | 1016.5 |
| 20260504042523 | 44 | 284 | 7.0 | 7.8 | 0.00 | 0.00 | 0.00 | 64 | 1016.5 |
| 20260504042020 | 44 | 293 | 0.0 | 5.2 | 0.00 | 0.00 | 0.00 | 70 | 1016.6 |
| 20260504041515 | 44 | 224 | 0.0 | 0.0 | 0.00 | 0.00 | 0.00 | 72 | 1016.9 |
| 20260504041011 | 44 | 224 | 0.0 | 0.0 | 0.00 | 0.00 | 0.00 | 72 | 1016.7 |
| 20260504040509 | 44 | 200 | 5.2 | 7.8 | 0.00 | 0.00 | 0.00 | 69 | 1016.5 |
| 20260504040006 | 44 | 254 | 0.0 | 0.0 | 0.00 | 0.00 | 0.00 | 65 | 1016.4 |
| 20260504035503 | 44 | 224 | 0.0 | 5.2 | 0.00 | 0.00 | 0.00 | 71 | 1016.4 |
| 20260504034959 | 44 | 230 | 0.0 | 0.0 | 0.00 | 0.00 | 0.00 | 69 | 1016.3 |
| 20260504034457 | 44 | 230 | 0.0 | 0.0 | 0.00 | 0.00 | 0.00 | 69 | 1016.4 |
| 20260504033954 | 44 | 267 | 0.0 | 0.0 | 0.00 | 0.00 | 0.00 | 69 | 1016.3 |
| 20260504033451 | 44 | 304 | 0.0 | 0.0 | 0.00 | 0.00 | 0.00 | 70 | 1016.3 |
| 20260504032948 | 44 | 226 | 0.0 | 6.1 | 0.00 | 0.00 | 0.00 | 70 | 1016.4 |
| 20260504032445 | 44 | 264 | 0.0 | 0.0 | 0.00 | 0.00 | 0.00 | 67 | 1016.3 |
| 20260504031942 | 45 | 290 | 0.0 | 7.0 | 0.00 | 0.00 | 0.00 | 71 | 1016.3 |
| 20260504031439 | 45 | 242 | 0.0 | 5.2 | 0.00 | 0.00 | 0.00 | 66 | 1016.2 |
| 20260504030935 | 45 | 277 | 0.0 | 0.0 | 0.00 | 0.00 | 0.00 | 64 | 1016.1 |
| 20260504030433 | 44 | 220 | 0.0 | 0.0 | 0.00 | 0.00 | 0.00 | 69 | 1016.0 |
| 20260504025928 | 45 | 220 | 0.0 | 0.0 | 0.00 | 0.00 | 0.00 | 74 | 1016.1 |
| 20260504025426 | 45 | 233 | 5.2 | 6.1 | 0.00 | 0.00 | 0.00 | 71 | 1015.9 |
| 20260504024923 | 46 | 167 | 0.0 | 0.0 | 0.00 | 0.00 | 0.00 | 66 | 1016.1 |
| 20260504024420 | 46 | 233 | 0.0 | 0.0 | 0.00 | 0.00 | 0.00 | 67 | 1015.9 |
| 20260504023917 | 46 | 233 | 0.0 | 0.0 | 0.00 | 0.00 | 0.00 | 72 | 1016.2 |
| 20260504023413 | 46 | 233 | 0.0 | 0.0 | 0.00 | 0.00 | 0.00 | 71 | 1016.1 |
| 20260504022908 | 46 | 233 | 0.0 | 0.0 | 0.00 | 0.00 | 0.00 | 68 | 1016.1 |
| 20260504022405 | 46 | 233 | 0.0 | 0.0 | 0.00 | 0.00 | 0.00 | 66 | 1016.3 |
| 20260504021902 | 47 | 325 | 0.0 | 0.0 | 0.00 | 0.00 | 0.00 | 67 | 1016.2 |
| 20260504021359 | 47 | 245 | 0.0 | 0.0 | 0.00 | 0.00 | 0.00 | 59 | 1016.1 |
| 20260504020856 | 47 | 254 | 0.0 | 6.1 | 0.00 | 0.00 | 0.00 | 59 | 1016.2 |
| 20260504020353 | 47 | 250 | 0.0 | 0.0 | 0.00 | 0.00 | 0.00 | 62 | 1016.3 |
| 20260504015849 | 47 | 250 | 0.0 | 0.0 | 0.00 | 0.00 | 0.00 | 64 | 1016.3 |
| 20260504015345 | 48 | 240 | 0.0 | 0.0 | 0.00 | 0.00 | 0.00 | 62 | 1016.2 |
| 20260504014841 | 48 | 348 | 0.0 | 0.0 | 0.00 | 0.00 | 0.00 | 62 | 1016.0 |
| 20260504014337 | 48 | 254 | 0.0 | 5.2 | 0.00 | 0.00 | 0.00 | 63 | 1016.2 |
| 20260504013835 | 48 | 250 | 0.0 | 0.0 | 0.00 | 0.00 | 0.00 | 55 | 1016.0 |
| 20260504013333 | 48 | 249 | 0.0 | 5.2 | 0.00 | 0.00 | 0.00 | 59 | 1015.8 |
| 20260504012830 | 48 | 245 | 0.0 | 7.0 | 0.00 | 0.00 | 0.00 | 56 | 1016.0 |
| 20260504012327 | 48 | 264 | 0.0 | 0.0 | 0.00 | 0.00 | 0.00 | 54 | 1016.0 |
| 20260504011825 | 48 | 223 | 0.0 | 0.0 | 0.00 | 0.00 | 0.00 | 52 | 1015.8 |
| 20260504011321 | 49 | 250 | 0.0 | 5.2 | 0.00 | 0.00 | 0.00 | 52 | 1015.8 |
| 20260504010817 | 49 | 220 | 0.0 | 5.2 | 0.00 | 0.00 | 0.00 | 50 | 1015.7 |
| 20260504010312 | 49 | 244 | 5.2 | 7.8 | 0.00 | 0.00 | 0.00 | 50 | 1015.9 |
| 20260504005809 | 49 | 270 | 0.0 | 6.1 | 0.00 | 0.00 | 0.00 | 50 | 1015.8 |
| 20260504005306 | 49 | 245 | 0.0 | 5.2 | 0.00 | 0.00 | 0.00 | 51 | 1015.7 |
| 20260504004804 | 49 | 241 | 5.2 | 8.7 | 0.00 | 0.00 | 0.00 | 50 | 1015.7 |
| 20260504004301 | 50 | 236 | 6.1 | 6.1 | 0.00 | 0.00 | 0.00 | 49 | 1015.6 |
| 20260504003757 | 50 | 250 | 0.0 | 6.1 | 0.00 | 0.00 | 0.00 | 48 | 1015.6 |
| 20260504003255 | 50 | 238 | 0.0 | 6.1 | 0.00 | 0.00 | 0.00 | 49 | 1015.4 |
| 20260504002751 | 51 | 236 | 0.0 | 6.1 | 0.00 | 0.00 | 0.00 | 48 | 1015.6 |
| 20260504002248 | 51 | 233 | 0.0 | 6.1 | 0.00 | 0.00 | 0.00 | 48 | 1015.4 |
| 20260504001746 | 52 | 230 | 0.0 | 6.1 | 0.00 | 0.00 | 0.00 | 47 | 1015.3 |
| 20260504001243 | 52 | 239 | 0.0 | 0.0 | 0.00 | 0.00 | 0.00 | 46 | 1015.1 |
| 20260504000739 | 52 | 232 | 0.0 | 5.2 | 0.00 | 0.00 | 0.00 | 46 | 1015.2 |
| 20260504000236 | 53 | 231 | 0.0 | 7.0 | 0.00 | 0.00 | 0.00 | 47 | 1015.1 |
| 20260503235735 | 53 | 239 | 0.0 | 6.1 | 0.00 | 0.00 | 0.00 | 46 | 1015.0 |
| 20260503235231 | 54 | 253 | 7.0 | 7.0 | 0.00 | 0.00 | 0.00 | 45 | 1015.0 |
| 20260503234729 | 54 | 238 | 0.0 | 7.0 | 0.00 | 0.00 | 0.00 | 44 | 1014.9 |
| 20260503234227 | 55 | 229 | 6.1 | 7.8 | 0.00 | 0.00 | 0.00 | 46 | 1015.0 |
| 20260503233724 | 55 | 269 | 0.0 | 5.2 | 0.00 | 0.00 | 0.00 | 43 | 1014.9 |
| 20260503233219 | 56 | 156 | 0.0 | 7.8 | 0.00 | 0.00 | 0.00 | 43 | 1014.9 |
| 20260503232716 | 56 | 245 | 0.0 | 7.8 | 0.00 | 0.00 | 0.00 | 42 | 1015.0 |
| 20260503232213 | 57 | 264 | 7.0 | 9.6 | 0.00 | 0.00 | 0.00 | 41 | 1015.0 |
| 20260503231712 | 57 | 224 | 7.0 | 11.3 | 0.00 | 0.00 | 0.00 | 40 | 1014.9 |
| 20260503231208 | 57 | 265 | 11.3 | 13.9 | 0.00 | 0.00 | 0.00 | 39 | 1014.8 |
| 20260503230704 | 57 | 264 | 7.0 | 7.8 | 0.00 | 0.00 | 0.00 | 40 | 1015.1 |
| 20260503230202 | 57 | 282 | 0.0 | 9.6 | 0.00 | 0.00 | 0.00 | 40 | 1014.8 |
| 20260503225659 | 58 | 270 | 6.1 | 9.6 | 0.00 | 0.00 | 0.00 | 40 | 1014.7 |
| 20260503225159 | 58 | 275 | 6.1 | 8.7 | 0.00 | 0.00 | 0.00 | 38 | 1014.8 |
| 20260503224657 | 58 | 262 | 7.8 | 11.3 | 0.00 | 0.00 | 0.00 | 39 | 1014.7 |
| 20260503224154 | 58 | 227 | 0.0 | 10.4 | 0.00 | 0.00 | 0.00 | 38 | 1014.9 |
| 20260503223652 | 58 | 266 | 9.6 | 16.5 | 0.00 | 0.00 | 0.00 | 36 | 1014.8 |
| 20260503223149 | 58 | 263 | 6.1 | 10.4 | 0.00 | 0.00 | 0.00 | 38 | 1014.6 |
| 20260503222646 | 58 | 203 | 7.8 | 9.6 | 0.00 | 0.00 | 0.00 | 40 | 1014.6 |
| 20260503222143 | 58 | 278 | 8.7 | 16.5 | 0.00 | 0.00 | 0.00 | 35 | 1014.7 |
| 20260503221642 | 59 | 285 | 10.4 | 11.3 | 0.00 | 0.00 | 0.00 | 38 | 1014.8 |
| 20260503221139 | 59 | 290 | 5.2 | 13.0 | 0.00 | 0.00 | 0.00 | 35 | 1014.8 |
| 20260503220635 | 59 | 264 | 9.6 | 14.8 | 0.00 | 0.00 | 0.00 | 37 | 1014.7 |
| 20260503220132 | 59 | 256 | 8.7 | 13.9 | 0.00 | 0.00 | 0.00 | 36 | 1014.6 |
| 20260503215630 | 59 | 279 | 7.8 | 11.3 | 0.00 | 0.00 | 0.00 | 36 | 1015.0 |
| 20260503215126 | 59 | 299 | 7.8 | 14.8 | 0.00 | 0.00 | 0.00 | 35 | 1014.9 |